星链-30864 (STARLINK-30864 )

导读

STARLINK-30864是美国太空探索技术公司Starlink卫星互联网项目的成员,2023年11月8日发射。它属于低轨通信卫星,旨在为全球提供高速低延迟互联网服务,尤其覆盖偏远与网络基础设施匮乏区域,是星链大规模组网过程中补充星座容量、提升全球服务稳定性的一颗卫星,延续了星链批量部署、构建全球卫星互联网的部署目标。

基本信息
目录编号:
58243
目录名称:
STARLINK-30864
国际标识:
2023-171P
轨道中心:
EARTH
卫星名称:
星链-30864
卫星全名:
星链-30864 (STARLINK-30864 )
卫星状态:
在轨 (已飞行953 天)
发射日期:
2023-11-08 UTC
国别 :
美国 (US)
星等 :
--
轨道信息
数据来源 国际轨道数据 AOE轨道数据
星历时间 2026-06-18T06:12:49+0800
11小时前
查看轨道信息
2026-06-13T01:00:00+0800
5天前
查看轨道信息
半长轴 6861.203km 6861.186km
偏心率 0.0000786 0.0000799
轨道倾角 43.001° 43.000°
近地点辐角 273.085° 307.766°
升交点赤经 79.212° 108.686°
平近点角 86.992° 127.683°
近地点 482.526km 482.5km
远地点 483.606km 483.598km
周期 94.267分钟 94.267分钟
每日圈数 15.275746 15.275802
详细信息
固有亮度:
5
最大亮度:
0.3
卫星平台:
Starlink v2.0 mini
覆盖范围:
全球
运营商:
太空探索技术公司
运营商所在国:
美国
制造商(研发单位):
太空探索技术公司
制造商所在国:
美国
使用方式:
暂无
卫星简介
星链(Starlink)计划是由太空探索技术公司(SpaceX)提出的一个巨型低轨卫星互联网星座项目,计划在2019年至2024年间在太空搭建由约1.2万颗卫星组成的“星链”网络,其中1584颗将部署在地球上空550千米处的近地轨道,并从2020年开始工作。该卫星仍在工作。
2D轨道图
3D轨道图
轨道高度分析图
轨道倾角分析图
轨道综合分析图
查看轨道综合分析图